Other Public Products
Issued by NWS Charleston, SC

Current Version | Previous Version | Text Only | Print | Product List | Glossary Off
Versions: 1 2 3 4 5 6 7 8 9 10 11 12 13 14 15 16 17 18 19 20 21 22 23 24 25 26 27 28 29 30 31 32 33 34 35 36 37 38 39 40 41 42 43 44 45 46 47 48 49 50
000 FPUS82 KCHS 050112 OPUCHS TEST...KCHS/KSAV Gateway Observations...TEST National Weather Service Charleston SC 800 PM EST SUN DEC 04 2016 NOTE: "fair" indicates few or no clouds below 12,000 feet with no significant weather and/or obstructions to visibility. SCZ050-WAZ558-NCZ071-TXZ119-213-PAZ071-DCZ001-FLZ074-172-MI076- NYZ176-178-MAZ016-IL014-TNZ027-NJZ106-GAZ044-MD014-050200- ...Gateway Observations for Charleston International... CITY SKY/WX TMP DP RH WIND PRES REMARKS Chas Airport CLOUDY 57 51 80 NE6 30.07R Seattle PTCLDY 40 34 79 E8 30.09S WCI 34 Charlotte LGT RAIN 41 39 93 NE5 30.12F FOG Dallas DFW CLOUDY 51 41 68 NE16 30.03S Dallas Love CLOUDY 51 43 74 N9 30.04S Philladelphia CLOUDY 44 29 55 SW3 30.18F Wash National CLOUDY 45 33 63 S12 30.16F Baltimore CLOUDY 42 32 67 S3 30.16F Miami MOCLDY 77 70 79 SE9 30.05R Detroit LGT SNOW 33 32 96 E7 29.87F VSB 3/4 WCI 27 Newark CLOUDY 44 23 43 E6 30.18S Laguardia CLOUDY 44 24 45 E12 30.19S J F K CLOUDY 40 22 48 E7 30.20S WCI 35 Boston Logan CLEAR 35 20 54 N7 30.22R WCI 29 Ft. Lauderdale MOCLDY 77 69 76 SE12 30.04R Chicago O`Hare LGT SNOW 31 30 96 W5 29.89S FOG WCI 26 Chicago Midway LGT SNOW 33 31 92 NW6 29.89F FOG WCI 28 Houston Bush CLOUDY 52 50 93 N13 29.96R Houston Hobby CLOUDY 53 50 89 N14 29.95R Nashville LGT RAIN 48 46 93 CALM 30.00R FOG Atlanta LGT RAIN 45 45 100 E14 30.05R FOG $$ GAZ044-118-TXZ119-213-NCZ071-DCZ001-MDZ014-506-PAZ021-071-NJZ106- NYZ176-178-MAZ106-OHZ011-021-055-MIZ076-KYZ091-ILZ014-INZ047- MNZ060-050200- ...Gateway Observations for Savannah International... CITY SKY/WX TMP DP RH WIND PRES REMARKS Savannah Arpt CLOUDY 61 55 81 NE5 30.04R Atlanta LGT RAIN 45 45 100 E14 30.05R FOG Charlotte LGT RAIN 41 39 93 NE5 30.12F FOG Dallas DFW CLOUDY 51 41 68 NE16 30.03S Houston Bush CLOUDY 52 50 93 N13 29.96R Wash National CLOUDY 45 33 63 S12 30.16F Wash Dulles CLOUDY 42 29 59 S6 30.15F Baltimore CLOUDY 42 32 67 S3 30.16F Philadelphia CLOUDY 44 29 55 SW3 30.18F Newark CLOUDY 44 23 43 E6 30.18S Laguardia CLOUDY 44 24 45 E12 30.19S J F K CLOUDY 40 22 48 E7 30.20S WCI 35 Boston CLEAR 35 20 54 N7 30.22R WCI 29 Pittsburg LGT RAIN 42 29 59 E9 29.91F Akron FLURRIES 38 29 70 SE13 29.90F WCI 30 Cleveland CLOUDY 41 28 60 S12 29.91F Cincinnati LGT RAIN 42 41 96 S8 29.87F FOG Columbus RAIN 36 36 99 S3 29.90F Detroit LGT SNOW 33 32 96 E7 29.87F VSB 3/4 WCI 27 Chicago O`Hare LGT SNOW 31 30 96 W5 29.89S FOG WCI 26 Minneapolis CLOUDY 38 32 79 W10 29.75S WCI 31 Indianapolis CLOUDY 40 38 93 W15 29.87S WCI 32 $$

USA.gov is the U.S. government's official web portal to all federal, state and local government web resources and services.